���t,����,�O�C���x,�����t���O,�O�C���Ύ��x,�����t���O,���ԉ��x,�����t���O,���ԑ��Ύ��x,�����t���O,�g�C������,�����t���O,�L�b�`�����x,�����t���O,��󒲎����x,�����t���O
2004/12/1,0:00,6.8,0,,2,21.7,0,52.1,0,17.4,0,21.4,0,16.7,0
2004/12/1,0:15,6.6,0,,2,21.8,0,52.3,0,17.5,0,21.4,0,16.6,0
2004/12/1,0:30,6.6,0,,2,21.8,0,51.8,0,17.5,0,21.4,0,16.5,0
2004/12/1,0:45,6.6,0,,2,21.6,0,49.3,0,18.2,0,21.2,0,16.4,0
2004/12/1,1:00,6.2,0,,2,21.7,0,53.4,0,18.2,0,21.2,0,16.3,0
2004/12/1,1:15,6.2,0,,2,21.4,0,49.7,0,18.3,0,21,0,16.1,0
2004/12/1,1:30,6.2,0,,2,21.1,0,49.4,0,18.3,0,20.7,0,16,0
2004/12/1,1:45,5.9,0,,2,20.8,0,48.9,0,18.3,0,20.4,0,15.9,0
2004/12/1,2:00,5.8,0,,2,20.5,0,48.4,0,18.4,0,20.2,0,15.8,0
2004/12/1,2:15,5.9,0,,2,20.3,0,48,0,18.4,0,19.9,0,15.8,0
2004/12/1,2:30,5.8,0,,2,20.1,0,47.6,0,18.5,0,19.8,0,15.7,0
2004/12/1,2:45,5.7,0,,2,19.9,0,47.4,0,18.5,0,19.6,0,15.7,0
2004/12/1,3:00,5.6,0,,2,19.8,0,47.2,0,18.6,0,19.5,0,15.6,0
2004/12/1,3:15,5.4,0,,2,19.6,0,47.3,0,18.6,0,19.3,0,15.6,0
2004/12/1,3:30,5.3,0,,2,19.5,0,47.1,0,18.6,0,19.2,0,15.5,0
2004/12/1,3:45,5.4,0,,2,19.3,0,47.1,0,18.7,0,19,0,15.4,0
2004/12/1,4:00,5.3,0,,2,19.2,0,47.1,0,18.7,0,18.9,0,15.4,0
2004/12/1,4:15,5.2,0,,2,19.1,0,47.1,0,18.8,0,18.8,0,15.3,0
2004/12/1,4:30,5.1,0,,2,18.9,0,47.2,0,18.8,0,18.7,0,15.2,0
2004/12/1,4:45,5.1,0,,2,18.8,0,47.3,0,18.8,0,18.5,0,15.1,0
2004/12/1,5:00,5,0,,2,18.7,0,47.6,0,17,0,18.4,0,15,0
2004/12/1,5:15,4.9,0,,2,18.6,0,47.8,0,17,0,18.3,0,15,0
2004/12/1,5:30,4.9,0,,2,18.4,0,47.8,0,17,0,18.2,0,14.9,0
2004/12/1,5:45,4.8,0,,2,18.3,0,47.9,0,17.1,0,18.1,0,14.8,0
2004/12/1,6:00,4.7,0,,2,18.2,0,48.3,0,17.1,0,18,0,14.8,0
2004/12/1,6:15,4.7,0,,2,20,0,44.8,0,18,0,18.1,0,14.8,0
2004/12/1,6:30,4.7,0,,2,22.7,0,44.1,0,18,0,19.5,0,14.9,0
2004/12/1,6:45,4.8,0,,2,20.9,0,49.3,0,18.1,0,20.1,0,15,0
2004/12/1,7:00,4.9,0,,2,20.7,0,61.6,0,18.1,0,20.2,0,15,0
2004/12/1,7:15,4.7,0,,2,20.4,0,54.2,0,18.6,0,19.9,0,15.1,0
2004/12/1,7:30,5,0,,2,20,0,48.5,0,18.8,0,19.6,0,15.1,0
2004/12/1,7:45,5.5,0,,2,19.8,0,47.9,0,18.8,0,19.3,0,15.1,0
2004/12/1,8:00,5.7,0,,2,19.7,0,48.6,0,18.9,0,19.1,0,15.1,0
2004/12/1,8:15,6.1,0,,2,19.6,0,48.5,0,18.9,0,19,0,15.1,0
2004/12/1,8:30,6.7,0,,2,19.2,0,46.2,0,18.9,0,18.4,0,15.2,0
2004/12/1,8:45,7.4,0,,2,19,0,48.3,0,19,0,18.3,0,15.2,0
2004/12/1,9:00,8.1,0,,2,18.8,0,48.5,0,19,0,18.1,0,15.3,0
2004/12/1,9:15,9,0,,2,18.8,0,49.1,0,19,0,18,0,15.4,0
2004/12/1,9:30,9.8,0,,2,18.7,0,50.2,0,18.3,0,17.9,0,15.5,0
2004/12/1,9:45,10.5,0,,2,19,0,53.1,0,18.3,0,18.2,0,15.6,0
2004/12/1,10:00,11.4,0,,2,19.1,0,53.8,0,18.3,0,18.6,0,15.7,0
2004/12/1,10:15,12.2,0,,2,19,0,54.6,0,18.3,0,18.7,0,15.9,0
2004/12/1,10:30,13.4,0,,2,19,0,54.9,0,18.4,0,18.6,0,16,0
2004/12/1,10:45,13.6,0,,2,19,0,54.5,0,18.4,0,18.6,0,16.1,0
2004/12/1,11:00,13.9,0,,2,19,0,52.7,0,18.5,0,18.6,0,16.2,0
2004/12/1,11:15,14.3,0,,2,19.2,0,57,0,18.5,0,18.8,0,16.3,0
2004/12/1,11:30,14.7,0,,2,19.4,0,59,0,18.5,0,19,0,16.4,0
2004/12/1,11:45,15.2,0,,2,19.5,0,59,0,18.6,0,19.1,0,16.4,0
2004/12/1,12:00,15.6,0,,2,19.5,0,58.6,0,18.6,0,19.2,0,16.5,0
2004/12/1,12:15,15.9,0,,2,19.5,0,58.4,0,18.7,0,19.3,0,16.6,0
2004/12/1,12:30,16,0,,2,19.6,0,58.1,0,18.7,0,19.4,0,16.7,0
2004/12/1,12:45,16.1,0,,2,19.7,0,57.9,0,18.7,0,19.5,0,16.7,0
2004/12/1,13:00,16.3,0,,2,19.8,0,57.7,0,17.2,0,19.5,0,16.8,0
2004/12/1,13:15,16.4,0,,2,19.9,0,56.7,0,17.3,0,19.6,0,16.9,0
2004/12/1,13:30,16.4,0,,2,20.1,0,60.1,0,17.3,0,19.8,0,16.9,0
2004/12/1,13:45,16.5,0,,2,20.2,0,60.5,0,17.4,0,19.9,0,17,0
2004/12/1,14:00,16.6,0,,2,20.3,0,59.8,0,17.4,0,20,0,17,0
2004/12/1,14:15,16.3,0,,2,20.3,0,57.8,0,17.5,0,20,0,17,0
2004/12/1,14:30,16.5,0,,2,20.3,0,55,0,17.6,0,20,0,17.1,0
2004/12/1,14:45,16.1,0,,2,20.2,0,52.7,0,17.6,0,19.9,0,17.1,0
2004/12/1,15:00,16.5,0,,2,20.2,0,51.4,0,17.7,0,19.9,0,17.2,0
2004/12/1,15:15,16.5,0,,2,20.3,0,49.8,0,16.8,0,19.8,0,17.2,0
2004/12/1,15:30,15.9,0,,2,20.1,0,49.3,0,16.9,0,19.7,0,17.2,0
2004/12/1,15:45,15.6,0,,2,20.1,0,48.5,0,16.9,0,19.6,0,17.2,0
2004/12/1,16:00,15.3,0,,2,20,0,49.4,0,18.3,0,19.5,0,17.2,0
2004/12/1,16:15,14.9,0,,2,20.1,0,50.4,0,18.4,0,19.5,0,17.3,0
2004/12/1,16:30,14.4,0,,2,20,0,50.7,0,18.4,0,19.5,0,17.3,0
2004/12/1,16:45,14,0,,2,20,0,50.8,0,18.5,0,19.5,0,17.3,0
2004/12/1,17:00,13.6,0,,2,20.1,0,51.4,0,18.5,0,19.6,0,17.3,0
2004/12/1,17:15,13,0,,2,20.2,0,50.8,0,17.8,0,19.6,0,17.4,0
2004/12/1,17:30,12.6,0,,2,20.2,0,51.6,0,17.9,0,19.6,0,17.5,0
2004/12/1,17:45,12.1,0,,2,20.1,0,51,0,18,0,19.5,0,17.5,0
2004/12/1,18:00,12,0,,2,20.3,0,53,0,18,0,19.6,0,17.6,0
2004/12/1,18:15,11.7,0,,2,20.5,0,55.4,0,18.1,0,19.8,0,17.6,0
2004/12/1,18:30,11.4,0,,2,20.6,0,53.9,0,18.4,0,20,0,17.7,0
2004/12/1,18:45,11.2,0,,2,20.3,0,54.3,0,18.5,0,20,0,17.7,0
2004/12/1,19:00,11,0,,2,20.2,0,52,0,18.5,0,20.2,0,17.7,0
2004/12/1,19:15,10.6,0,,2,20.3,0,51.1,0,18.7,0,20.5,0,17.7,0
2004/12/1,19:30,10.5,0,,2,20.2,0,51.3,0,18.6,0,20.2,0,17.6,0
2004/12/1,19:45,10.4,0,,2,20.5,0,52.3,0,18.6,0,20.5,0,17.6,0
2004/12/1,20:00,10.1,0,,2,20.5,0,51.9,0,18,0,20.3,0,17.6,0
2004/12/1,20:15,10,0,,2,20.2,0,51.4,0,18,0,20.3,0,17.6,0
2004/12/1,20:30,9.7,0,,2,20.5,0,53.4,0,18.1,0,20.3,0,17.5,0
2004/12/1,20:45,9.6,0,,2,20.6,0,54.1,0,18.1,0,20.3,0,17.5,0
2004/12/1,21:00,9.4,0,,2,20.8,0,54,0,18.1,0,20.4,0,17.5,0
2004/12/1,21:15,9.9,0,,2,20.9,0,55.5,0,18.2,0,20.5,0,17.5,0
2004/12/1,21:30,9.2,0,,2,21.1,0,55.9,0,18.3,0,20.7,0,17.5,0
2004/12/1,21:45,9,0,,2,21.2,0,55.6,0,17.6,0,20.9,0,17.4,0
2004/12/1,22:00,8.8,0,,2,21.3,0,54.6,0,17.5,0,21,0,17.4,0
2004/12/1,22:15,8.8,0,,2,21.4,0,54.6,0,17.6,0,21.1,0,17.3,0
2004/12/1,22:30,8.9,0,,2,21.5,0,54.1,0,17.6,0,21.2,0,17.3,0
2004/12/1,22:45,8.9,0,,2,21.5,0,53.4,0,17,0,21.2,0,17.2,0
2004/12/1,23:00,9,0,,2,21.6,0,52.7,0,17.4,0,21.2,0,17.1,0
2004/12/1,23:15,9.1,0,,2,21.6,0,53.1,0,17.6,0,21.2,0,17.1,0
2004/12/1,23:30,9,0,,2,21.5,0,50.4,0,17.6,0,21.1,0,17,0
2004/12/1,23:45,9,0,,2,21.4,0,50,0,17.6,0,20.9,0,16.9,0
2004/12/2,0:00,9.1,0,,2,21.5,0,50,0,17.7,0,20.9,0,16.8,0
2004/12/2,0:15,9.2,0,,2,21.3,0,49.7,0,17.7,0,20.8,0,16.7,0
2004/12/2,0:30,9.8,0,,2,21.4,0,51,0,17.8,0,20.7,0,16.6,0
2004/12/2,0:45,10,0,,2,21.3,0,50.6,0,17.9,0,20.7,0,16.5,0
2004/12/2,1:00,10.1,0,,2,21.3,0,50.4,0,17.9,0,20.6,0,16.5,0
2004/12/2,1:15,10.4,0,,2,21.2,0,50.1,0,18,0,20.6,0,16.4,0
2004/12/2,1:30,10.1,0,,2,21,0,49,0,18,0,20.4,0,16.4,0
2004/12/2,1:45,9.8,0,,2,20.9,0,49.1,0,18,0,20.2,0,16.4,0
2004/12/2,2:00,9.8,0,,2,20.7,0,49.1,0,18.1,0,20,0,16.4,0
2004/12/2,2:15,10,0,,2,20.6,0,49.2,0,18.2,0,19.9,0,16.4,0
2004/12/2,2:30,9.5,0,,2,20.4,0,49.4,0,18.2,0,19.8,0,16.4,0
2004/12/2,2:45,9.2,0,,2,20.3,0,49.4,0,16.9,0,19.6,0,16.4,0
2004/12/2,3:00,9,0,,2,20.1,0,49.6,0,17,0,19.5,0,16.4,0
2004/12/2,3:15,9,0,,2,19.9,0,49.6,0,17,0,19.4,0,16.4,0
2004/12/2,3:30,9,0,,2,19.8,0,49.7,0,17.1,0,19.3,0,16.4,0
2004/12/2,3:45,8.7,0,,2,19.7,0,49.8,0,17.1,0,19.2,0,16.4,0
2004/12/2,4:00,8.9,0,,2,19.6,0,49.8,0,17.2,0,19.1,0,16.3,0
2004/12/2,4:15,8.8,0,,2,19.5,0,49.9,0,17.2,0,19,0,16.3,0
2004/12/2,4:30,8.9,0,,2,19.3,0,50,0,17.3,0,18.9,0,16.3,0
2004/12/2,4:45,8.9,0,,2,19.2,0,50.2,0,17.3,0,18.8,0,16.3,0
2004/12/2,5:00,8.5,0,,2,19.1,0,50.3,0,17.4,0,18.7,0,16.2,0
2004/12/2,5:15,8.2,0,,2,19,0,50.4,0,17.4,0,18.6,0,16.2,0
2004/12/2,5:30,8.3,0,,2,18.9,0,50.4,0,17.5,0,18.5,0,16.2,0
2004/12/2,5:45,8,0,,2,18.8,0,50.4,0,17.5,0,18.4,0,16.1,0
2004/12/2,6:00,8.2,0,,2,18.7,0,50.4,0,17.6,0,18.3,0,16.1,0
2004/12/2,6:15,8.5,0,,2,18.6,0,50.5,0,17.6,0,18.2,0,16.1,0
2004/12/2,6:30,8.9,0,,2,18.7,0,51.7,0,17.7,0,18.3,0,16.3,0
2004/12/2,6:45,8.9,0,,2,18.8,0,52.8,0,17.9,0,18.4,0,16.4,0
2004/12/2,7:00,9,0,,2,19,0,53.2,0,17.9,0,18.6,0,16.4,0
2004/12/2,7:15,9.1,0,,2,19.2,0,62.5,0,18,0,18.9,0,16.5,0
2004/12/2,7:30,9.1,0,,2,19.4,0,63,0,18,0,19.2,0,16.5,0
2004/12/2,7:45,9.2,0,,2,19.4,0,58.3,0,18.5,0,19.2,0,16.6,0
2004/12/2,8:00,9.5,0,,2,19.4,0,57.4,0,18.6,0,19.2,0,16.6,0
2004/12/2,8:15,9.8,0,,2,19.3,0,53.5,0,18.6,0,18.9,0,16.6,0
2004/12/2,8:30,10.4,0,,2,19.3,0,52.8,0,18.7,0,18.7,0,16.7,0
2004/12/2,8:45,10.9,0,,2,19.4,0,52.6,0,17.5,0,18.8,0,16.7,0
2004/12/2,9:00,11.4,0,,2,19.5,0,54.1,0,17.6,0,19.1,0,16.8,0
2004/12/2,9:15,12.8,0,,2,19.7,0,55.9,0,17.7,0,19.4,0,16.8,0
2004/12/2,9:30,13.6,0,,2,19.6,0,55.3,0,18.2,0,19.4,0,16.9,0
2004/12/2,9:45,14.1,0,,2,19.6,0,54.5,0,18.2,0,19.3,0,16.9,0
2004/12/2,10:00,14.5,0,,2,19.5,0,52.6,0,18.4,0,19.2,0,17,0
2004/12/2,10:15,15,0,,2,19.5,0,52.4,0,18.4,0,19.1,0,17.2,0
2004/12/2,10:30,15.2,0,,2,19.5,0,52.7,0,18.5,0,19.1,0,17.2,0
2004/12/2,10:45,15.3,0,,2,19.6,0,52.8,0,18.5,0,19.1,0,17.2,0
2004/12/2,11:00,15.7,0,,2,19.6,0,52.7,0,18.6,0,19.2,0,17.1,0
2004/12/2,11:15,15.8,0,,2,19.6,0,52.1,0,18.6,0,19.2,0,17.1,0
2004/12/2,11:30,16.1,0,,2,19.7,0,51.6,0,18.6,0,19.2,0,17.1,0
2004/12/2,11:45,16.2,0,,2,19.6,0,50.1,0,18.7,0,19.2,0,17.1,0
2004/12/2,12:00,16.3,0,,2,19.6,0,49.1,0,18.7,0,19.2,0,17.1,0
2004/12/2,12:15,16.4,0,,2,19.6,0,48.4,0,18.8,0,19.2,0,17.1,0
2004/12/2,12:30,16.5,0,,2,19.6,0,48.3,0,18.8,0,19.2,0,17.1,0
2004/12/2,12:45,16.6,0,,2,19.6,0,48.3,0,17.5,0,19.2,0,17.1,0
2004/12/2,13:00,16.7,0,,2,19.7,0,47.7,0,17.5,0,19.3,0,17.1,0
2004/12/2,13:15,16.9,0,,2,19.8,0,48.3,0,17.6,0,19.5,0,17.2,0
2004/12/2,13:30,17,0,,2,20,0,49.3,0,17.6,0,19.6,0,17.2,0
2004/12/2,13:45,17,0,,2,20.3,0,50.3,0,17.7,0,19.8,0,17.2,0
2004/12/2,14:00,17.2,0,,2,20.3,0,50.7,0,17.8,0,20,0,17.2,0
2004/12/2,14:15,17.3,0,,2,20.4,0,51.1,0,17.8,0,20.1,0,17.3,0
2004/12/2,14:30,17.4,0,,2,20.5,0,51.6,0,17.9,0,20.2,0,17.3,0
2004/12/2,14:45,17.5,0,,2,20.5,0,51.6,0,18,0,20.3,0,17.3,0
2004/12/2,15:00,17.5,0,,2,20.5,0,50.7,0,18,0,20.4,0,17.3,0
2004/12/2,15:15,17.4,0,,2,20.5,0,48.6,0,17.2,0,20.4,0,17.3,0
2004/12/2,15:30,17.1,0,,2,20.5,0,47.9,0,17.3,0,20.4,0,17.3,0
2004/12/2,15:45,16.9,0,,2,20.5,0,46.5,0,17.3,0,20.3,0,17.3,0
2004/12/2,16:00,16.7,0,,2,20.4,0,44.8,0,17.4,0,20.3,0,17.3,0
2004/12/2,16:15,16.4,0,,2,20.5,0,45.6,0,17.5,0,20.3,0,17.3,0
2004/12/2,16:30,16.1,0,,2,20.5,0,41.3,0,17.5,0,20.2,0,17.4,0
2004/12/2,16:45,15.6,0,,2,20.3,0,41.2,0,17.7,0,19.8,0,17.6,0
2004/12/2,17:00,15.3,0,,2,20.4,0,42.3,0,17.7,0,19.8,0,17.5,0
2004/12/2,17:15,14.9,0,,2,20.4,0,44.2,0,17.8,0,19.9,0,17.5,0
2004/12/2,17:30,14.5,0,,2,20.7,0,48.5,0,18,0,20.1,0,17.5,0
2004/12/2,17:45,14.1,0,,2,20.7,0,46.5,0,18.3,0,20.3,0,17.5,0
2004/12/2,18:00,13.5,0,,2,20.7,0,46.2,0,18.4,0,20.3,0,17.6,0
2004/12/2,18:15,13,0,,2,20.7,0,46,0,18.4,0,20.3,0,17.7,0
2004/12/2,18:30,12.7,0,,2,20.8,0,47.1,0,18.5,0,20.4,0,17.8,0
2004/12/2,18:45,12.5,0,,2,20.9,0,47.4,0,18.6,0,20.5,0,17.8,0
2004/12/2,19:00,12.1,0,,2,20.8,0,46.5,0,18.6,0,20.6,0,17.9,0
2004/12/2,19:15,11.8,0,,2,20.9,0,47.2,0,18.7,0,20.6,0,17.9,0
2004/12/2,19:30,11.6,0,,2,21,0,47.6,0,18.8,0,20.8,0,17.9,0
2004/12/2,19:45,11.2,0,,2,21,0,47.5,0,18.8,0,20.9,0,17.9,0
2004/12/2,20:00,11.1,0,,2,21.1,0,47.4,0,18.9,0,20.8,0,17.9,0
2004/12/2,20:15,11.1,0,,2,21.1,0,46.8,0,18.9,0,20.8,0,17.9,0
2004/12/2,20:30,11,0,,2,21.2,0,46.7,0,17.7,0,20.6,0,17.8,0
2004/12/2,20:45,11,0,,2,21.1,0,46.4,0,17.8,0,20.5,0,17.7,0
2004/12/2,21:00,11,0,,2,21.1,0,46.2,0,17.8,0,20.4,0,17.6,0
2004/12/2,21:15,11.3,0,,2,21.2,0,47.7,0,17.7,0,20.6,0,17.5,0
2004/12/2,21:30,11.3,0,,2,21.3,0,48.4,0,17.8,0,20.7,0,17.4,0
2004/12/2,21:45,11,0,,2,21.4,0,48.9,0,17.9,0,20.9,0,17.4,0
2004/12/2,22:00,10.8,0,,2,21.4,0,48.9,0,17.9,0,20.9,0,17.3,0
2004/12/2,22:15,10.4,0,,2,21.6,0,49.9,0,18.1,0,21.1,0,17.4,0
2004/12/2,22:30,10.4,0,,2,21.8,0,51.6,0,18.1,0,21.3,0,17.3,0
2004/12/2,22:45,10.2,0,,2,21.9,0,52.8,0,18.2,0,21.4,0,17.3,0
2004/12/2,23:00,10.1,0,,2,22.1,0,56.3,0,18.2,0,21.6,0,17.3,0
2004/12/2,23:15,9.7,0,,2,22.3,0,58.1,0,17.7,0,21.8,0,17.3,0
2004/12/2,23:30,9.5,0,,2,22.2,0,57.2,0,17.8,0,21.9,0,17.3,0
2004/12/2,23:45,9.3,0,,2,22.2,0,56.6,0,17.9,0,21.9,0,17.2,0
2004/12/3,0:00,9.2,0,,2,22.1,0,54.9,0,17.4,0,21.8,0,17.1,0
2004/12/3,0:15,9,0,,2,22,0,54.3,0,17.5,0,21.8,0,16.9,0
2004/12/3,0:30,8.9,0,,2,22,0,54.1,0,17.5,0,21.8,0,16.7,0
2004/12/3,0:45,8.7,0,,2,22,0,53.8,0,17.6,0,21.7,0,16.6,0
2004/12/3,1:00,8.6,0,,2,22,0,53.6,0,17.7,0,21.7,0,16.4,0
2004/12/3,1:15,8.3,0,,2,22,0,53.3,0,17.7,0,21.7,0,16.3,0
2004/12/3,1:30,8.1,0,,2,22,0,53,0,17.8,0,21.6,0,16.2,0
2004/12/3,1:45,7.9,0,,2,21.9,0,52.7,0,17.8,0,21.5,0,16.1,0
2004/12/3,2:00,7.9,0,,2,21.9,0,52.5,0,17.8,0,21.5,0,16,0
2004/12/3,2:15,7.7,0,,2,21.5,0,49.1,0,16.9,0,21.2,0,15.9,0
2004/12/3,2:30,7.4,0,,2,21.3,0,48.3,0,16.9,0,21,0,15.7,0
2004/12/3,2:45,7.2,0,,2,21.1,0,48,0,16.9,0,20.8,0,15.6,0
2004/12/3,3:00,7.2,0,,2,20.9,0,47.6,0,17,0,20.6,0,15.5,0
2004/12/3,3:15,7.3,0,,2,20.8,0,47.4,0,17,0,20.4,0,15.4,0
2004/12/3,3:30,7.2,0,,2,20.6,0,47.4,0,17.1,0,20.2,0,15.3,0
2004/12/3,3:45,7.2,0,,2,20.4,0,47.5,0,17.1,0,20,0,15.2,0
2004/12/3,4:00,7.2,0,,2,20.2,0,47.6,0,17.2,0,19.9,0,15.2,0
2004/12/3,4:15,6.9,0,,2,20,0,47.6,0,17.2,0,19.7,0,15.1,0
2004/12/3,4:30,6.7,0,,2,19.9,0,47.7,0,17.3,0,19.6,0,14.9,0
2004/12/3,4:45,6.7,0,,2,19.8,0,47.6,0,17.3,0,19.5,0,14.8,0
2004/12/3,5:00,6.7,0,,2,19.8,0,50,0,17.3,0,19.4,0,14.7,0
2004/12/3,5:15,6.6,0,,2,19.6,0,49.7,0,16.5,0,19.3,0,14.6,0
2004/12/3,5:30,6.7,0,,2,19.5,0,49.7,0,16.5,0,19.2,0,14.5,0
2004/12/3,5:45,6.6,0,,2,19.4,0,49.4,0,16.5,0,19.1,0,14.4,0
2004/12/3,6:00,6.5,0,,2,19.3,0,49.3,0,16.6,0,19,0,14.4,0
2004/12/3,6:15,6.5,0,,2,19.2,0,49.2,0,16.6,0,18.9,0,14.3,0
2004/12/3,6:30,6.6,0,,2,19.2,0,49.4,0,16.3,0,18.9,0,14.6,0
2004/12/3,6:45,6.7,0,,2,19.3,0,51.4,0,16.3,0,19,0,14.7,0
2004/12/3,7:00,6.7,0,,2,22.5,0,46.6,0,17.4,0,19.7,0,14.9,0
2004/12/3,7:15,6.5,0,,2,20.6,0,47.9,0,17.4,0,20.1,0,15,0
2004/12/3,7:30,6.6,0,,2,20.2,0,47.2,0,18.3,0,19.8,0,15.1,0
2004/12/3,7:45,6.8,0,,2,20.1,0,47.6,0,18.3,0,19.6,0,15.1,0
2004/12/3,8:00,7.1,0,,2,19.7,0,44.8,0,18.3,0,18.9,0,15.2,0
2004/12/3,8:15,7.5,0,,2,19.6,0,47.3,0,18.4,0,18.7,0,15.2,0
2004/12/3,8:30,8.1,0,,2,19.4,0,48.2,0,17.8,0,18.6,0,15.2,0
2004/12/3,8:45,8.7,0,,2,19,0,47.2,0,17.5,0,17.9,0,15.4,0
2004/12/3,9:00,9.5,0,,2,19,0,49,0,17.5,0,17.8,0,15.4,0
2004/12/3,9:15,10.3,0,,2,19,0,49.7,0,17.7,0,17.9,0,15.6,0
2004/12/3,9:30,11.3,0,,2,19,0,50.4,0,17.7,0,18.1,0,15.8,0
2004/12/3,9:45,12.1,0,,2,19,0,51.1,0,17.8,0,18.3,0,15.9,0
2004/12/3,10:00,12.8,0,,2,19.1,0,51.6,0,17.8,0,18.6,0,16.1,0
2004/12/3,10:15,13.6,0,,2,19.2,0,53.1,0,18.2,0,18.7,0,16.2,0
2004/12/3,10:30,14.2,0,,2,19.3,0,53.8,0,18.2,0,18.9,0,16.5,0
2004/12/3,10:45,14.7,0,,2,19.4,0,54.4,0,18.2,0,19.1,0,16.7,0
2004/12/3,11:00,15.3,0,,2,19.5,0,56.3,0,17.5,0,19.1,0,16.8,0
2004/12/3,11:15,15.7,0,,2,19.7,0,59.5,0,17.5,0,19.4,0,17,0
2004/12/3,11:30,15.9,0,,2,19.8,0,59.8,0,17.5,0,19.6,0,17.1,0
2004/12/3,11:45,16.3,0,,2,19.9,0,60,0,17.6,0,19.7,0,17.3,0
2004/12/3,12:00,16.5,0,,2,20,0,59.4,0,17.5,0,19.8,0,17.4,0
2004/12/3,12:15,16.9,0,,2,20.1,0,58.9,0,17.6,0,19.9,0,17.5,0
2004/12/3,12:30,17.3,0,,2,20.2,0,58.2,0,17.1,0,20,0,17.6,0
2004/12/3,12:45,17.7,0,,2,20.3,0,56.9,0,17.1,0,20.1,0,17.7,0
2004/12/3,13:00,18,0,,2,20.5,0,56.9,0,17.1,0,20.3,0,17.9,0
2004/12/3,13:15,18.2,0,,2,20.5,0,55.2,0,17.2,0,20.3,0,18.1,0
2004/12/3,13:30,18.5,0,,2,20.5,0,54.9,0,17.8,0,20.2,0,18.3,0
2004/12/3,13:45,18.7,0,,2,20.5,0,53.6,0,17.8,0,20.1,0,18.5,0
2004/12/3,14:00,19,0,,2,20.5,0,52.3,0,17.9,0,20,0,18.6,0
2004/12/3,14:15,19.3,0,,2,20.5,0,51.8,0,17.9,0,19.9,0,18.7,0
2004/12/3,14:30,19.6,0,,2,20.6,0,51.2,0,18,0,19.9,0,18.9,0
2004/12/3,14:45,19.9,0,,2,20.6,0,51,0,18.1,0,19.9,0,19,0
2004/12/3,15:00,20.1,0,,2,20.6,0,50.9,0,18.1,0,19.9,0,19.1,0
2004/12/3,15:15,20.3,0,,2,20.6,0,51,0,17.1,0,19.9,0,19.1,0
2004/12/3,15:30,20,0,,2,20.7,0,51.6,0,17.2,0,20,0,19.2,0
2004/12/3,15:45,19.2,0,,2,20.7,0,52.9,0,17.2,0,20.2,0,19.3,0
2004/12/3,16:00,18.5,0,,2,20.9,0,54.5,0,17.3,0,20.4,0,19.4,0
2004/12/3,16:15,17.9,0,,2,21,0,55.6,0,17.4,0,20.7,0,19.4,0
2004/12/3,16:30,17.6,0,,2,21.1,0,55.3,0,17.5,0,20.8,0,19.4,0
2004/12/3,16:45,17.4,0,,2,21.3,0,55.2,0,17.5,0,20.9,0,19.4,0
2004/12/3,17:00,16.7,0,,2,21.3,0,54.5,0,16.8,0,20.9,0,19.3,0
2004/12/3,17:15,16.2,0,,2,21.4,0,56.4,0,16.8,0,21.1,0,19.3,0
2004/12/3,17:30,15.8,0,,2,21.4,0,55.4,0,18.2,0,20.9,0,19.3,0
2004/12/3,17:45,15.5,0,,2,21.4,0,54.3,0,18.2,0,20.9,0,19.2,0
2004/12/3,18:00,15.2,0,,2,21.3,0,53.7,0,18.3,0,20.8,0,19.2,0
2004/12/3,18:15,15,0,,2,21.3,0,53.9,0,18.1,0,20.7,0,19.2,0
2004/12/3,18:30,14.6,0,,2,21.3,0,55.5,0,18,0,20.9,0,19.1,0
2004/12/3,18:45,14.3,0,,2,21.4,0,55.6,0,18.1,0,21.1,0,19,0
2004/12/3,19:00,14.1,0,,2,21.5,0,56.5,0,17.4,0,21.3,0,19,0
2004/12/3,19:15,14,0,,2,21.5,0,55.2,0,17.4,0,21.4,0,19,0
2004/12/3,19:30,13.9,0,,2,21.5,0,55.6,0,17.8,0,21.5,0,19,0
2004/12/3,19:45,13.8,0,,2,21.5,0,54.7,0,17.9,0,21.5,0,19,0
2004/12/3,20:00,13.7,0,,2,21.4,0,54.4,0,17.4,0,21.3,0,19,0
2004/12/3,20:15,13.6,0,,2,21.4,0,54.3,0,17.5,0,21.3,0,19,0
2004/12/3,20:30,13.4,0,,2,21.3,0,53.7,0,17.5,0,21.3,0,18.9,0
2004/12/3,20:45,13.4,0,,2,21.2,0,54.5,0,17.6,0,21.1,0,18.9,0
2004/12/3,21:00,13.6,0,,2,21.2,0,55.6,0,18.1,0,20.9,0,18.8,0
2004/12/3,21:15,13.4,0,,2,21.2,0,57.4,0,17.8,0,20.9,0,18.8,0
2004/12/3,21:30,13.4,0,,2,21.4,0,56.6,0,17.9,0,21.1,0,18.7,0
2004/12/3,21:45,13.4,0,,2,21.5,0,56.2,0,18,0,21.2,0,18.6,0
2004/12/3,22:00,13.1,0,,2,21.5,0,55.4,0,18,0,21.1,0,18.7,0
2004/12/3,22:15,13.2,0,,2,21.7,0,55.7,0,18.1,0,21.4,0,18.7,0
2004/12/3,22:30,13.1,0,,2,21.9,0,56.5,0,18.1,0,21.6,0,18.8,0
2004/12/3,22:45,13,0,,2,22,0,57.2,0,18,0,21.7,0,18.8,0
2004/12/3,23:00,12.9,0,,2,22.1,0,58,0,18.1,0,21.9,0,18.8,0
2004/12/3,23:15,12.7,0,,2,22.2,0,59.2,0,18.1,0,22,0,18.8,0
2004/12/3,23:30,12.8,0,,2,22.3,0,59.7,0,18.2,0,22.1,0,18.8,0
2004/12/3,23:45,12.7,0,,2,22.4,0,60,0,18.3,0,22.1,0,18.7,0
2004/12/4,0:00,12.7,0,,2,22.4,0,59.7,0,18.3,0,22.2,0,18.7,0
2004/12/4,0:15,12.8,0,,2,22.4,0,59.5,0,18.4,0,22.2,0,18.6,0
2004/12/4,0:30,12.8,0,,2,22.4,0,59.2,0,18.3,0,22.2,0,18.6,0
2004/12/4,0:45,12.7,0,,2,22.5,0,59.7,0,18.3,0,22.2,0,18.6,0
2004/12/4,1:00,12.8,0,,2,22.5,0,59.4,0,18.4,0,22.3,0,18.5,0
2004/12/4,1:15,12.8,0,,2,22.6,0,59.2,0,18.4,0,22.3,0,18.6,0
2004/12/4,1:30,12.6,0,,2,22.6,0,59.2,0,18.5,0,22.4,0,18.6,0
2004/12/4,1:45,12.6,0,,2,22.6,0,59,0,18.5,0,22.4,0,18.5,0
2004/12/4,2:00,12.6,0,,2,22.6,0,59,0,18.6,0,22.5,0,18.5,0
2004/12/4,2:15,12.5,0,,2,22.6,0,58.2,0,17.3,0,22.4,0,18.5,0
2004/12/4,2:30,12.6,0,,2,22.5,0,56.2,0,17.4,0,22.2,0,18.5,0
2004/12/4,2:45,12.5,0,,2,22.4,0,55.8,0,17.4,0,22,0,18.5,0
2004/12/4,3:00,12.6,0,,2,22.3,0,55.5,0,17.5,0,21.9,0,18.5,0
2004/12/4,3:15,12.8,0,,2,22.1,0,55.4,0,17.6,0,21.8,0,18.5,0
2004/12/4,3:30,12.7,0,,2,22,0,55.3,0,17.7,0,21.6,0,18.5,0
2004/12/4,3:45,12.9,0,,2,21.9,0,55.2,0,17.7,0,21.5,0,18.5,0
2004/12/4,4:00,13,0,,2,21.8,0,55.2,0,17.8,0,21.4,0,18.5,0
2004/12/4,4:15,12.9,0,,2,21.7,0,55.4,0,17.8,0,21.3,0,18.5,0
2004/12/4,4:30,13,0,,2,21.6,0,55.3,0,17.9,0,21.2,0,18.5,0
2004/12/4,4:45,12.9,0,,2,21.5,0,55.5,0,18,0,21.1,0,18.4,0
2004/12/4,5:00,13,0,,2,21.4,0,55.4,0,18,0,21,0,18.4,0
2004/12/4,5:15,13.2,0,,2,21.3,0,55.6,0,18.1,0,21,0,18.4,0
2004/12/4,5:30,13.2,0,,2,21.2,0,55.6,0,18.2,0,20.9,0,18.4,0
2004/12/4,5:45,13.2,0,,2,21.1,0,55.7,0,18.2,0,20.8,0,18.4,0
2004/12/4,6:00,13.3,0,,2,21.1,0,55.8,0,17.1,0,20.8,0,18.4,0
2004/12/4,6:15,13.3,0,,2,21.1,0,56.2,0,17.2,0,20.8,0,18.5,0
2004/12/4,6:30,13.6,0,,2,21.4,0,58,0,17.3,0,21,0,18.5,0
2004/12/4,6:45,13.6,0,,2,21.6,0,59.7,0,17.3,0,21.2,0,18.6,0
2004/12/4,7:00,13.6,0,,2,21.7,0,61.4,0,17.4,0,21.4,0,18.6,0
2004/12/4,7:15,13.8,0,,2,21.8,0,62,0,18.4,0,21.6,0,18.6,0
2004/12/4,7:30,13.9,0,,2,22,0,62.3,0,18.5,0,21.7,0,18.7,0
2004/12/4,7:45,14.2,0,,2,21.9,0,60.9,0,18.5,0,21.7,0,18.7,0
2004/12/4,8:00,14.4,0,,2,21.8,0,58.3,0,18.1,0,21.4,0,18.7,0
2004/12/4,8:15,14.4,0,,2,21.8,0,57.9,0,18.2,0,21.4,0,18.8,0
2004/12/4,8:30,14.5,0,,2,21.7,0,58.7,0,18.2,0,21.2,0,18.8,0
2004/12/4,8:45,14.8,0,,2,21.5,0,58.5,0,18.1,0,21,0,18.8,0
2004/12/4,9:00,15.1,0,,2,21.7,0,59.1,0,18.1,0,21,0,18.9,0
2004/12/4,9:15,15.3,0,,2,21.7,0,59.5,0,18,0,21.2,0,18.9,0
2004/12/4,9:30,15.8,0,,2,21.6,0,59.6,0,18,0,21.2,0,19,0
2004/12/4,9:45,16,0,,2,21.5,0,60.5,0,18.4,0,21.1,0,19,0
2004/12/4,10:00,15.9,0,,2,21.4,0,61.1,0,18.6,0,21,0,19,0
2004/12/4,10:15,16,0,,2,21.7,0,61.2,0,18.7,0,21.2,0,19,0
2004/12/4,10:30,15.9,0,,2,21.7,0,61.1,0,18.7,0,21.3,0,19,0
2004/12/4,10:45,16,0,,2,21.7,0,63,0,18,0,21.3,0,19,0
2004/12/4,11:00,16,0,,2,21.7,0,63,0,18,0,21.3,0,19,0
2004/12/4,11:15,15.9,0,,2,21.7,0,62.5,0,18.1,0,21.2,0,19,0
2004/12/4,11:30,15.9,0,,2,21.7,0,62.2,0,18.2,0,21.2,0,19,0
2004/12/4,11:45,15.8,0,,2,21.7,0,62,0,18.2,0,21.2,0,19,0
2004/12/4,12:00,15.8,0,,2,21.6,0,61.9,0,18.3,0,21.1,0,19,0
2004/12/4,12:15,15.7,0,,2,21.6,0,62.1,0,18.4,0,21.1,0,19,0
2004/12/4,12:30,15.6,0,,2,21.6,0,62.1,0,18.4,0,21.1,0,19,0
2004/12/4,12:45,15.6,0,,2,21.7,0,63,0,17.9,0,21.1,0,19,0
2004/12/4,13:00,15.6,0,,2,21.9,0,63.8,0,18,0,21.3,0,19,0
2004/12/4,13:15,15.7,0,,2,21.8,0,68.2,0,18,0,21.3,0,18.9,0
2004/12/4,13:30,15.8,0,,2,21.8,0,66.4,0,17.7,0,21.3,0,18.9,0
2004/12/4,13:45,15.7,0,,2,22,0,67.5,0,17.8,0,21.5,0,18.9,0
2004/12/4,14:00,15.5,0,,2,22,0,67.7,0,17.9,0,21.5,0,18.9,0
2004/12/4,14:15,15.4,0,,2,22,0,67,0,17.9,0,21.6,0,18.9,0
2004/12/4,14:30,15.1,0,,2,22,0,66.1,0,18,0,21.6,0,18.9,0
2004/12/4,14:45,15,0,,2,22.2,0,65.8,0,18.1,0,21.6,0,18.9,0
2004/12/4,15:00,14.9,0,,2,22.2,0,65.7,0,18.1,0,21.7,0,19,0
2004/12/4,15:15,15,0,,2,22.2,0,66.4,0,18.2,0,21.8,0,19,0
2004/12/4,15:30,15.1,0,,2,22.3,0,67,0,18.3,0,21.9,0,19,0
2004/12/4,15:45,15,0,,2,22.4,0,67.3,0,18.4,0,22,0,19,0
2004/12/4,16:00,15,0,,2,22.4,0,66.2,0,17.6,0,22,0,19,0
2004/12/4,16:15,14.9,0,,2,22.6,0,66,0,17.5,0,22.1,0,19,0
2004/12/4,16:30,14.8,0,,2,22.7,0,67,0,17.5,0,22.3,0,19,0
2004/12/4,16:45,14.8,0,,2,22.8,0,67.3,0,17.6,0,22.4,0,19.1,0
2004/12/4,17:00,14.7,0,,2,23,0,70.5,0,17.7,0,22.6,0,19.1,0
2004/12/4,17:15,14.7,0,,2,23.1,0,71.7,0,17.8,0,22.8,0,19.1,0
2004/12/4,17:30,14.7,0,,2,22.8,0,67.4,0,17.9,0,22.5,0,19.2,0
2004/12/4,17:45,14.8,0,,2,22.9,0,69,0,18.4,0,22.4,0,19.2,0
2004/12/4,18:00,14.7,0,,2,22.7,0,67.3,0,18.5,0,22.2,0,19.3,0
2004/12/4,18:15,14.6,0,,2,22.6,0,67.6,0,18.5,0,22.2,0,19.3,0
2004/12/4,18:30,14.7,0,,2,22.4,0,67.2,0,18.6,0,22.1,0,19.3,0
2004/12/4,18:45,14.6,0,,2,22.2,0,67.1,0,17.6,0,22.1,0,19.3,0
2004/12/4,19:00,14.6,0,,2,22.2,0,66.8,0,17.7,0,21.9,0,19.3,0
2004/12/4,19:15,14.6,0,,2,22.4,0,67.8,0,17.8,0,21.9,0,19.2,0
2004/12/4,19:30,14.6,0,,2,22.5,0,68.7,0,18,0,22.1,0,19.2,0
2004/12/4,19:45,14.7,0,,2,22.8,0,72.9,0,18.1,0,22.3,0,19.2,0
2004/12/4,20:00,14.7,0,,2,22.8,0,73.3,0,18.2,0,22.5,0,19.2,0
2004/12/4,20:15,14.7,0,,2,22.8,0,72.7,0,18.3,0,22.5,0,19.2,0
2004/12/4,20:30,14.8,0,,2,22.8,0,70.6,0,18.3,0,22.5,0,19.2,0
2004/12/4,20:45,14.8,0,,2,22.9,0,71.1,0,18.4,0,22.6,0,19.2,0
2004/12/4,21:00,14.7,0,,2,23,0,71.9,0,18.5,0,22.7,0,19.3,0
2004/12/4,21:15,14.8,0,,2,23,0,70.7,0,18.2,0,22.7,0,19.3,0
2004/12/4,21:30,15.2,0,,2,23,0,70.9,0,18.3,0,22.7,0,19.3,0
2004/12/4,21:45,15,0,,2,23,0,70.4,0,18.4,0,22.6,0,19.3,0
2004/12/4,22:00,15.8,0,,2,23,0,70.2,0,18.4,0,22.5,0,19.3,0
2004/12/4,22:15,15.9,0,,2,23.2,0,71.1,0,18.2,0,22.6,0,19.4,0
2004/12/4,22:30,15.7,0,,2,23.3,0,72.2,0,18.2,0,22.8,0,19.4,0
2004/12/4,22:45,15.8,0,,2,23.3,0,72.4,0,18,0,22.9,0,19.5,0
2004/12/4,23:00,15.7,0,,2,23.4,0,72.2,0,18,0,23,0,19.5,0
2004/12/4,23:15,15.9,0,,2,23.4,0,72.4,0,18.1,0,23.1,0,19.6,0
2004/12/4,23:30,15.2,0,,2,23.5,0,72.4,0,18.1,0,23.1,0,19.6,0
2004/12/4,23:45,14.8,0,,2,23.6,0,72.4,0,18.2,0,23.2,0,19.7,0
2004/12/5,0:00,14.9,0,,2,23.4,0,70.8,0,18.3,0,23,0,19.7,0
2004/12/5,0:15,14.9,0,,2,23.2,0,69,0,18.3,0,22.9,0,19.8,0
2004/12/5,0:30,14.9,0,,2,23.1,0,68.5,0,18.4,0,22.8,0,19.8,0
2004/12/5,0:45,15.1,0,,2,23,0,67.9,0,18.5,0,22.6,0,19.8,0
2004/12/5,1:00,15.1,0,,2,22.9,0,67.5,0,18.6,0,22.5,0,19.8,0
2004/12/5,1:15,15.2,0,,2,22.8,0,67.1,0,18.7,0,22.4,0,19.8,0
2004/12/5,1:30,15.3,0,,2,22.7,0,66.8,0,18.7,0,22.4,0,19.8,0
2004/12/5,1:45,15.5,0,,2,22.6,0,66.7,0,17.6,0,22.3,0,19.7,0
2004/12/5,2:00,15.3,0,,2,22.5,0,66.4,0,17.7,0,22.2,0,19.7,0
2004/12/5,2:15,14.9,0,,2,22.4,0,66.4,0,17.7,0,22.1,0,19.7,0
2004/12/5,2:30,14.8,0,,2,22.3,0,66.3,0,17.8,0,22,0,19.7,0
2004/12/5,2:45,14.8,0,,2,22.2,0,66,0,17.9,0,21.9,0,19.7,0
2004/12/5,3:00,14.5,0,,2,22.2,0,65.7,0,18,0,21.9,0,19.7,0